872 
ASUS46 KSEW 221710
RWRWA 

WASHINGTON REGIONAL WEATHER ROUNDUP
NATIONAL WEATHER SERVICE SEATTLE WA
900 AM PST WED NOV 22 2017

NOTE:"FAIR" INDICATES FEW OR NO CLOUDS BELOW 12,000 FEET WITH NO 
SIGNIFICANT WEATHER AND/OR OBSTRUCTIONS TO VISIBILITY.

WAZ507-509-555>559-221800-
SEATTLE, TACOMA, EVERETT, AND VICINITY
  
CITY           SKY/WX    TMP DP  RH WIND       PRES   REMARKS
EVERETT        CLOUDY    59  57  93 SE8       29.99S                  
BOEING FIELD   CLOUDY    57  56  96 CALM      29.99R                  
RENTON         PTSUNNY   53  53 100 NW3       29.98R FOG              
SEATAC AIRPORT MOSUNNY   59  56  89 S3        29.99R                  
JBLM-MCCHORD   CLOUDY    58  58 100 S5        29.99R                  
PUYALLUP       PTSUNNY   66  57  72 S7G14     30.00R                  
BREMERTON      CLOUDY    58  57  97 SW9       29.98R                  
JBLM-FT LEWIS  PTSUNNY   60  60 100 SE5       29.98R                  
TACOMA NARROWS PTSUNNY   59  57  93 S7        29.99R                  
$$
 
WAZ001-503-506-510-514-515-221800-
NORTH INTERIOR
  
CITY           SKY/WX    TMP DP  RH WIND       PRES   REMARKS
BELLINGHAM     CLOUDY    63  57  81 SE20G26   29.89F                  
FRIDAY HARBOR  CLOUDY    55  54  96 SE13G18   29.90S                  
EASTSOUND      CLOUDY    61  57  88 S16G24    29.88S                  
PORT ANGELES   FOG       52  52 100 CALM      29.89F VSB<1/4          
EDIZ HOOK      FOG       49  49  99 CALM      29.89F VSB<1/4          
PORT TOWNSEND  CLOUDY    61  57  88 S12G24    29.91R                  
NAS WHIDBEY    CLOUDY    63  55  75 SE26G37   29.94F                  
ARLINGTON      CLOUDY    60  58  92 SE7       29.97S                  
BURLINGTON     CLOUDY    63  57  82 SE13G22   29.93S                  
$$
 
WAZ020-022-039-040-504-511-512-221800-
SOUTHWEST INTERIOR
  
CITY           SKY/WX    TMP DP  RH WIND       PRES   REMARKS
SHELTON        CLOUDY    59  58  96 VRB3      29.96R FOG              
OLYMPIA        PTSUNNY   60  57  89 S7        29.98R                  
CHEHALIS       DRIZZLE   59  59 100 S5        30.01R                  
KELSO          LGT RAIN  55  54  96 SE9       30.04R                  
VANCOUVER      LGT RAIN  51  51 100 E12       30.05R FOG              
SCAPPOOSE, OR  LGT RAIN  52  52 100 CALM      30.05R FOG              
PORTLAND, OR   LGT RAIN  51  51 100 E10       30.07R                  
$$
 
WAZ021-516-517-221800-
WASHINGTON COAST
  
CITY           SKY/WX    TMP DP  RH WIND       PRES   REMARKS
FORKS          CLOUDY    57  56  96 S16G24    29.88R FOG              
HOQUIAM        LGT RAIN  58  58 100 S15       29.96S FOG              
ASTORIA, OR    LGT RAIN  61  58  90 S23G36    29.98R                  
$$
 
WAZ019-023-024-040-567>569-221800-
CASCADE MOUNTAINS AND COLUMBIA GORGE
  
CITY           SKY/WX    TMP DP  RH WIND       PRES   REMARKS
STAMPEDE PASS  HAZE      42  31  64 VRB5      30.08R VSB 3/4          
TROUTDALE, OR  LGT RAIN  52  49  89 E20G29    30.06R                  
HOOD RIVER, OR LGT RAIN  45  43  93 CALM      30.15R                  
THE DALLES, OR CLOUDY    47  45  93 SE3       30.14R FOG              
$$

WAZ026-027-041>044-520-521-221800-
EAST SLOPES
  
CITY           SKY/WX    TMP DP  RH WIND       PRES   REMARKS
OMAK           CLOUDY    40  40 100 CALM      30.14R                  
WENATCHEE      CLOUDY    37  37 100 N3        30.13R                  
ELLENSBURG     CLOUDY    40  37  89 CALM      30.11R FOG              
YAKIMA         CLOUDY    43  40  89 CALM      30.13R                  
SUNNYSIDE ARPT CLOUDY    42  40  96 CALM      30.14R FOG              
YAKIMA TC      FOG       39  37  93 CALM      30.11R VSB 1/8          
$$

WAZ028-034-035-221800-
COLUMBIA BASIN
  
CITY           SKY/WX    TMP DP  RH WIND       PRES   REMARKS
EPHRATA        CLOUDY    41  36  82 N7        30.13R                  
MOSES LAKE     FOG       41  41 100 NE6       30.13R VSB 1            
PASCO          CLOUDY    45  43  93 NW8       30.15R                  
RICHLAND ARPT  CLOUDY    45  44  95 NW6       30.14R                  
HERMISTON, OR  CLOUDY    46  45  96 S5        30.12R                  
$$

WAZ036>038-221800-
NORTHEAST WASHINGTON
  
CITY           SKY/WX    TMP DP  RH WIND       PRES   REMARKS
SPOKANE GEIGER CLOUDY    46  45  96 CALM      30.13R                  
SPOKANE FELTS  CLOUDY    46  44  93 SW3       30.14R                  
FAIRCHILD AFB  CLOUDY    46  46 100 NE5       30.12S FOG              
COEURDALENE,ID CLOUDY    49  48  97 CALM      30.14R                  
DEER PARK      CLOUDY    47  46  97 CALM      30.14R                  
$$

WAZ029>033-221800-
SOUTHEAST WASHINGTON
  
CITY           SKY/WX    TMP DP  RH WIND       PRES   REMARKS
PULLMAN        LGT RAIN  53  49  86 S10       30.18R                  
LEWISTON, ID   CLOUDY    50  50 100 CALM      30.17R                  
WALLA WALLA    CLOUDY    54  52  93 CALM      30.11R                  
PENDLETON, OR  CLOUDY    54  52  93 SE5       30.10S                  
$$